Location: Unspecified
(0.0000°N, 0.0000°E)
Time: 21:01:02
(UTC+00:00)

Kosmos-2154 - Pass Details

Date: 12 June 2023
Orbit: 968 x 1007 km, 82.9° (Epoch: 29 September)

Event Time Altitude Azimuth Distance (km) Brightness Sun altitude
Exits shadow 19:47:37 29° 55° (NE) 1,705 7.0 -24.6°
Drops below altitude 10° 19:51:05 10° 28° (NNE) 2,699 8.3 -25.4°
Sets 19:53:45 0° 20° (NNE) 3,642 9.1 -26.0°
